Private Wetterstation Sandau
Wetterdaten: Samstag, 25.08.2012
Datum Zeit Temp. A. Feuchte A. Luftdruck Regen Wind Richtung Richtung Taupunkt Windchill
25.08.2012 00:01 15,5 C 84 % 1007,8 hPa 0,0 l/m 0,0 km/h (0 Bft) SO 135 12,8 C 15,5 C
25.08.2012 00:06 15,4 C 84 % 1007,8 hPa 0,0 l/m 0,0 km/h (0 Bft) S-SO 157 12,7 C 15,4 C
25.08.2012 00:11 15,3 C 84 % 1008,0 hPa 0,0 l/m 0,0 km/h (0 Bft) S-SO 157 12,6 C 15,3 C
25.08.2012 00:16 15,3 C 84 % 1008,0 hPa 0,0 l/m 0,0 km/h (0 Bft) S-SO 157 12,6 C 15,3 C
25.08.2012 00:21 15,1 C 84 % 1007,8 hPa 0,0 l/m 0,0 km/h (0 Bft) S-SO 157 12,4 C 15,1 C
25.08.2012 00:26 15,1 C 84 % 1007,5 hPa 0,0 l/m 0,0 km/h (0 Bft) S-SO 157 12,4 C 15,1 C
25.08.2012 00:31 14,9 C 84 % 1007,7 hPa 0,0 l/m 0,0 km/h (0 Bft) S-SO 157 12,2 C 14,9 C
25.08.2012 00:36 14,9 C 84 % 1007,7 hPa 0,0 l/m 0,0 km/h (0 Bft) SO 135 12,2 C 14,9 C
25.08.2012 00:41 14,9 C 85 % 1007,7 hPa 0,0 l/m 0,0 km/h (0 Bft) SO 135 12,4 C 14,9 C
25.08.2012 00:46 14,9 C 85 % 1007,7 hPa 0,0 l/m 0,0 km/h (0 Bft) SO 135 12,4 C 14,9 C
25.08.2012 00:51 14,9 C 85 % 1007,6 hPa 0,0 l/m 0,0 km/h (0 Bft) SO 135 12,4 C 14,9 C
25.08.2012 00:56 14,9 C 85 % 1007,6 hPa 0,0 l/m 0,0 km/h (0 Bft) O-SO 112 12,4 C 14,9 C
25.08.2012 01:01 14,9 C 86 % 1007,5 hPa 0,0 l/m 0,0 km/h (0 Bft) O-SO 112 12,6 C 14,9 C
25.08.2012 01:06 14,9 C 86 % 1007,5 hPa 0,0 l/m 0,0 km/h (0 Bft) O-SO 112 12,6 C 14,9 C
25.08.2012 01:11 14,9 C 86 % 1007,5 hPa 0,0 l/m 0,0 km/h (0 Bft) O-SO 112 12,6 C 14,9 C
25.08.2012 01:16 14,9 C 86 % 1007,6 hPa 0,0 l/m 0,0 km/h (0 Bft) O 90 12,6 C 14,9 C
25.08.2012 01:21 14,8 C 86 % 1007,5 hPa 0,0 l/m 0,0 km/h (0 Bft) O 90 12,5 C 14,8 C
25.08.2012 01:26 14,7 C 86 % 1007,4 hPa 0,0 l/m 0,0 km/h (0 Bft) NO 45 12,4 C 14,7 C
25.08.2012 01:31 14,6 C 87 % 1007,3 hPa 0,0 l/m 0,0 km/h (0 Bft) O-NO 67 12,5 C 14,6 C
25.08.2012 01:36 14,6 C 87 % 1007,4 hPa 0,0 l/m 0,0 km/h (0 Bft) O-NO 67 12,5 C 14,6 C
25.08.2012 01:41 14,5 C 88 % 1007,4 hPa 0,0 l/m 0,0 km/h (0 Bft) NO 45 12,5 C 14,5 C
25.08.2012 01:46 14,4 C 88 % 1007,4 hPa 0,0 l/m 0,0 km/h (0 Bft) O-NO 67 12,4 C 14,4 C
25.08.2012 01:51 14,4 C 88 % 1007,3 hPa 0,0 l/m 0,0 km/h (0 Bft) NO 45 12,4 C 14,4 C
25.08.2012 01:56 14,3 C 88 % 1007,3 hPa 0,0 l/m 0,0 km/h (0 Bft) O 90 12,3 C 14,3 C
25.08.2012 02:01 14,2 C 89 % 1007,2 hPa 0,0 l/m 0,0 km/h (0 Bft) O-NO 67 12,4 C 14,2 C
25.08.2012 02:06 14,2 C 89 % 1007,5 hPa 0,0 l/m 0,0 km/h (0 Bft) O-SO 112 12,4 C 14,2 C
25.08.2012 02:11 14,2 C 89 % 1007,6 hPa 0,0 l/m 0,0 km/h (0 Bft) O-SO 112 12,4 C 14,2 C
25.08.2012 02:16 14,2 C 89 % 1007,3 hPa 0,0 l/m 5,0 km/h (1 Bft) O-NO 67 12,4 C 14,2 C
25.08.2012 02:21 14,1 C 89 % 1007,3 hPa 0,0 l/m 2,9 km/h (1 Bft) O 90 12,3 C 14,1 C
25.08.2012 02:26 14,2 C 89 % 1007,2 hPa 0,0 l/m 2,9 km/h (1 Bft) O-NO 67 12,4 C 14,2 C
25.08.2012 02:31 14,2 C 89 % 1007,3 hPa 0,0 l/m 0,0 km/h (0 Bft) O-SO 112 12,4 C 14,2 C
25.08.2012 02:36 14,2 C 90 % 1007,1 hPa 0,0 l/m 0,0 km/h (0 Bft) O-SO 112 12,6 C 14,2 C
25.08.2012 02:41 14,3 C 90 % 1007,1 hPa 0,0 l/m 0,0 km/h (0 Bft) O 90 12,7 C 14,3 C
25.08.2012 02:46 14,4 C 90 % 1007,0 hPa 0,0 l/m 6,8 km/h (2 Bft) O-NO 67 12,8 C 14,4 C
25.08.2012 02:51 14,4 C 90 % 1007,1 hPa 0,0 l/m 2,2 km/h (1 Bft) O-NO 67 12,8 C 14,4 C
25.08.2012 02:56 14,4 C 90 % 1007,1 hPa 0,0 l/m 1,4 km/h (1 Bft) O 90 12,8 C 14,4 C
25.08.2012 03:01 14,5 C 90 % 1007,1 hPa 0,0 l/m 3,6 km/h (1 Bft) O-SO 112 12,9 C 14,5 C
25.08.2012 03:06 14,6 C 91 % 1007,1 hPa 0,0 l/m 3,2 km/h (1 Bft) O-SO 112 13,1 C 14,6 C
25.08.2012 03:11 14,6 C 91 % 1007,3 hPa 0,0 l/m 0,0 km/h (0 Bft) O-SO 112 13,1 C 14,6 C
25.08.2012 03:16 14,6 C 91 % 1007,5 hPa 0,0 l/m 0,0 km/h (0 Bft) SO 135 13,1 C 14,6 C
25.08.2012 03:21 14,7 C 91 % 1007,4 hPa 0,0 l/m 2,2 km/h (1 Bft) SO 135 13,2 C 14,7 C
25.08.2012 03:26 14,7 C 91 % 1007,6 hPa 0,0 l/m 0,0 km/h (0 Bft) SO 135 13,2 C 14,7 C
25.08.2012 03:31 14,8 C 91 % 1007,5 hPa 0,0 l/m 0,0 km/h (0 Bft) SO 135 13,3 C 14,8 C
25.08.2012 03:36 14,8 C 91 % 1007,4 hPa 0,0 l/m 0,0 km/h (0 Bft) SO 135 13,3 C 14,8 C
25.08.2012 03:41 14,7 C 91 % 1007,5 hPa 0,0 l/m 5,0 km/h (1 Bft) O-SO 112 13,2 C 14,7 C
25.08.2012 03:46 14,7 C 91 % 1007,5 hPa 0,0 l/m 3,2 km/h (1 Bft) O-SO 112 13,2 C 14,7 C
25.08.2012 03:51 14,7 C 92 % 1007,5 hPa 0,0 l/m 2,2 km/h (1 Bft) S-SO 157 13,4 C 14,7 C
25.08.2012 03:56 14,7 C 92 % 1007,7 hPa 0,0 l/m 1,4 km/h (1 Bft) S-SO 157 13,4 C 14,7 C
25.08.2012 04:01 14,8 C 92 % 1007,5 hPa 0,0 l/m 3,2 km/h (1 Bft) SO 135 13,5 C 14,8 C
25.08.2012 04:06 14,8 C 92 % 1007,5 hPa 0,0 l/m 5,0 km/h (1 Bft) SO 135 13,5 C 14,8 C
25.08.2012 04:11 14,8 C 92 % 1007,5 hPa 0,0 l/m 0,0 km/h (0 Bft) S-SO 157 13,5 C 14,8 C
25.08.2012 04:16 14,8 C 92 % 1007,5 hPa 0,0 l/m 0,0 km/h (0 Bft) O-SO 112 13,5 C 14,8 C
25.08.2012 04:21 14,8 C 92 % 1007,4 hPa 0,0 l/m 2,5 km/h (1 Bft) SO 135 13,5 C 14,8 C
25.08.2012 04:26 14,8 C 92 % 1007,4 hPa 0,0 l/m 0,0 km/h (0 Bft) SO 135 13,5 C 14,8 C
25.08.2012 04:31 14,8 C 92 % 1007,3 hPa 0,0 l/m 1,8 km/h (1 Bft) O-SO 112 13,5 C 14,8 C
25.08.2012 04:36 14,8 C 92 % 1007,3 hPa 0,0 l/m 2,2 km/h (1 Bft) S-SO 157 13,5 C 14,8 C
25.08.2012 04:41 14,8 C 92 % 1007,2 hPa 0,0 l/m 2,5 km/h (1 Bft) O-SO 112 13,5 C 14,8 C
25.08.2012 04:46 14,8 C 92 % 1007,3 hPa 0,0 l/m 0,0 km/h (0 Bft) O-SO 112 13,5 C 14,8 C
25.08.2012 04:51 14,8 C 92 % 1007,3 hPa 0,0 l/m 0,0 km/h (0 Bft) O-SO 112 13,5 C 14,8 C
25.08.2012 04:56 14,8 C 92 % 1007,1 hPa 0,0 l/m 3,6 km/h (1 Bft) O-SO 112 13,5 C 14,8 C
25.08.2012 05:01 14,9 C 92 % 1007,1 hPa 0,0 l/m 0,0 km/h (0 Bft) S-SO 157 13,6 C 14,9 C
25.08.2012 05:06 14,9 C 92 % 1007,0 hPa 0,0 l/m 0,0 km/h (0 Bft) SO 135 13,6 C 14,9 C
25.08.2012 05:11 14,9 C 92 % 1006,9 hPa 0,0 l/m 1,8 km/h (1 Bft) O-SO 112 13,6 C 14,9 C
25.08.2012 05:16 14,9 C 92 % 1006,8 hPa 0,0 l/m 0,0 km/h (0 Bft) O-SO 112 13,6 C 14,9 C
25.08.2012 05:21 14,9 C 92 % 1006,9 hPa 0,5 l/m 0,0 km/h (0 Bft) O-SO 112 13,6 C 14,9 C
25.08.2012 05:26 14,9 C 92 % 1006,7 hPa 0,0 l/m 3,6 km/h (1 Bft) O-SO 112 13,6 C 14,9 C
25.08.2012 05:31 14,9 C 92 % 1006,6 hPa 0,0 l/m 1,4 km/h (1 Bft) O-SO 112 13,6 C 14,9 C
25.08.2012 05:36 14,9 C 92 % 1006,7 hPa 0,0 l/m 2,5 km/h (1 Bft) O-SO 112 13,6 C 14,9 C
25.08.2012 05:41 14,9 C 92 % 1006,7 hPa 0,0 l/m 1,4 km/h (1 Bft) O-SO 112 13,6 C 14,9 C
25.08.2012 05:46 14,9 C 92 % 1006,7 hPa 0,0 l/m 2,5 km/h (1 Bft) SO 135 13,6 C 14,9 C
25.08.2012 05:51 14,9 C 92 % 1006,6 hPa 0,0 l/m 3,6 km/h (1 Bft) SO 135 13,6 C 14,9 C
25.08.2012 05:56 14,9 C 92 % 1006,5 hPa 0,0 l/m 0,0 km/h (0 Bft) SO 135 13,6 C 14,9 C
25.08.2012 06:01 14,9 C 92 % 1006,6 hPa 0,0 l/m 4,0 km/h (1 Bft) SO 135 13,6 C 14,9 C
25.08.2012 06:06 14,9 C 92 % 1006,7 hPa 0,0 l/m 0,0 km/h (0 Bft) SO 135 13,6 C 14,9 C
25.08.2012 06:11 14,9 C 92 % 1006,6 hPa 0,0 l/m 4,0 km/h (1 Bft) S-SO 157 13,6 C 14,9 C
25.08.2012 06:16 14,9 C 92 % 1006,7 hPa 0,0 l/m 1,4 km/h (1 Bft) SO 135 13,6 C 14,9 C
25.08.2012 06:21 14,9 C 92 % 1006,7 hPa 0,0 l/m 3,2 km/h (1 Bft) SO 135 13,6 C 14,9 C
25.08.2012 06:26 14,9 C 92 % 1006,6 hPa 0,0 l/m 0,0 km/h (0 Bft) O-SO 112 13,6 C 14,9 C
25.08.2012 06:31 14,9 C 92 % 1006,6 hPa 0,0 l/m 3,2 km/h (1 Bft) O-SO 112 13,6 C 14,9 C
25.08.2012 06:36 14,9 C 92 % 1006,6 hPa 0,0 l/m 2,5 km/h (1 Bft) O-SO 112 13,6 C 14,9 C
25.08.2012 06:41 14,9 C 92 % 1006,6 hPa 0,0 l/m 4,0 km/h (1 Bft) SO 135 13,6 C 14,9 C
25.08.2012 06:46 14,9 C 92 % 1006,6 hPa 0,0 l/m 4,0 km/h (1 Bft) SO 135 13,6 C 14,9 C
25.08.2012 06:51 14,9 C 92 % 1006,6 hPa 0,0 l/m 1,4 km/h (1 Bft) S-SO 157 13,6 C 14,9 C
25.08.2012 06:56 14,9 C 92 % 1006,7 hPa 0,0 l/m 1,8 km/h (1 Bft) SO 135 13,6 C 14,9 C
25.08.2012 07:01 14,9 C 92 % 1006,7 hPa 0,0 l/m 0,0 km/h (0 Bft) SO 135 13,6 C 14,9 C
25.08.2012 07:06 14,9 C 93 % 1006,8 hPa 0,0 l/m 2,2 km/h (1 Bft) O-SO 112 13,8 C 14,9 C
25.08.2012 07:11 14,9 C 92 % 1006,8 hPa 0,0 l/m 2,2 km/h (1 Bft) S-SO 157 13,6 C 14,9 C
25.08.2012 07:16 15,0 C 92 % 1006,8 hPa 0,0 l/m 1,8 km/h (1 Bft) SO 135 13,7 C 15,0 C
25.08.2012 07:21 15,1 C 92 % 1006,9 hPa 0,0 l/m 1,4 km/h (1 Bft) SO 135 13,8 C 15,1 C
25.08.2012 07:26 15,2 C 92 % 1006,9 hPa 0,0 l/m 0,0 km/h (0 Bft) SO 135 13,9 C 15,2 C
25.08.2012 07:31 15,3 C 92 % 1007,1 hPa 0,0 l/m 0,0 km/h (0 Bft) SO 135 14,0 C 15,3 C
25.08.2012 07:36 15,3 C 92 % 1007,2 hPa 0,0 l/m 1,1 km/h (1 Bft) SO 135 14,0 C 15,3 C
25.08.2012 07:41 15,4 C 92 % 1007,2 hPa 0,0 l/m 2,2 km/h (1 Bft) S-SW 202 14,1 C 15,4 C
25.08.2012 07:46 15,5 C 93 % 1007,0 hPa 0,0 l/m 0,0 km/h (0 Bft) S 180 14,4 C 15,5 C
25.08.2012 07:51 15,5 C 93 % 1007,0 hPa 0,0 l/m 0,0 km/h (0 Bft) S-SO 157 14,4 C 15,5 C
25.08.2012 07:56 15,6 C 93 % 1007,2 hPa 0,0 l/m 0,0 km/h (0 Bft) SW 225 14,5 C 15,6 C
25.08.2012 08:01 15,6 C 93 % 1007,3 hPa 0,0 l/m 0,0 km/h (0 Bft) W 270 14,5 C 15,6 C
25.08.2012 08:06 15,8 C 93 % 1007,1 hPa 0,0 l/m 0,0 km/h (0 Bft) W 270 14,7 C 15,8 C
25.08.2012 08:11 15,9 C 93 % 1007,3 hPa 0,0 l/m 0,0 km/h (0 Bft) W 270 14,8 C 15,9 C
25.08.2012 08:16 15,9 C 92 % 1007,1 hPa 0,0 l/m 0,0 km/h (0 Bft) SW 225 14,6 C 15,9 C
25.08.2012 08:21 16,0 C 92 % 1007,3 hPa 0,0 l/m 1,1 km/h (1 Bft) SW 225 14,7 C 16,0 C
25.08.2012 08:26 16,1 C 92 % 1007,2 hPa 0,0 l/m 1,4 km/h (1 Bft) W 270 14,8 C 16,1 C
25.08.2012 08:31 16,1 C 92 % 1007,3 hPa 0,0 l/m 3,2 km/h (1 Bft) S 180 14,8 C 16,1 C
25.08.2012 08:36 16,4 C 92 % 1007,3 hPa 0,0 l/m 2,2 km/h (1 Bft) S 180 15,1 C 16,4 C
25.08.2012 08:41 16,5 C 91 % 1007,4 hPa 0,0 l/m 5,8 km/h (2 Bft) W-SW 247 15,0 C 16,5 C
25.08.2012 08:46 16,6 C 91 % 1007,3 hPa 0,0 l/m 4,7 km/h (1 Bft) SW 225 15,1 C 16,6 C
25.08.2012 08:51 16,7 C 91 % 1007,2 hPa 0,0 l/m 2,2 km/h (1 Bft) S-SO 157 15,2 C 16,7 C
25.08.2012 08:56 16,8 C 90 % 1007,3 hPa 0,0 l/m 0,0 km/h (0 Bft) S-SW 202 15,1 C 16,8 C
25.08.2012 09:01 16,8 C 90 % 1007,2 hPa 0,0 l/m 3,2 km/h (1 Bft) S-SO 157 15,1 C 16,8 C
25.08.2012 09:06 16,9 C 90 % 1007,0 hPa 0,0 l/m 0,0 km/h (0 Bft) S-SW 202 15,2 C 16,9 C
25.08.2012 09:11 17,1 C 89 % 1007,1 hPa 0,0 l/m 0,0 km/h (0 Bft) S-SO 157 15,3 C 17,1 C
25.08.2012 09:16 17,3 C 89 % 1007,2 hPa 0,0 l/m 0,0 km/h (0 Bft) SO 135 15,5 C 17,3 C
25.08.2012 09:21 17,6 C 88 % 1007,3 hPa 0,0 l/m 4,7 km/h (1 Bft) SO 135 15,6 C 17,6 C
25.08.2012 09:26 17,9 C 88 % 1007,3 hPa 0,0 l/m 3,6 km/h (1 Bft) SO 135 15,9 C 17,9 C
25.08.2012 09:31 18,1 C 87 % 1007,3 hPa 0,0 l/m 2,5 km/h (1 Bft) O-SO 112 15,9 C 18,1 C
25.08.2012 09:36 18,2 C 86 % 1007,2 hPa 0,0 l/m 0,0 km/h (0 Bft) O-SO 112 15,8 C 18,2 C
25.08.2012 09:41 18,5 C 86 % 1007,2 hPa 0,0 l/m 1,8 km/h (1 Bft) SO 135 16,1 C 18,5 C
25.08.2012 09:46 18,8 C 85 % 1007,3 hPa 0,0 l/m 0,0 km/h (0 Bft) S 180 16,2 C 18,8 C
25.08.2012 09:51 19,1 C 84 % 1007,2 hPa 0,0 l/m 4,0 km/h (1 Bft) SW 225 16,3 C 19,1 C
25.08.2012 09:56 19,3 C 83 % 1007,3 hPa 0,0 l/m 2,9 km/h (1 Bft) SW 225 16,3 C 19,3 C
25.08.2012 10:01 19,6 C 82 % 1007,1 hPa 0,0 l/m 3,6 km/h (1 Bft) SW 225 16,4 C 19,6 C
25.08.2012 10:06 19,8 C 81 % 1007,2 hPa 0,0 l/m 5,0 km/h (1 Bft) S 180 16,4 C 19,8 C
25.08.2012 10:11 19,9 C 80 % 1007,2 hPa 0,0 l/m 4,0 km/h (1 Bft) S-SO 157 16,3 C 19,9 C
25.08.2012 10:16 20,1 C 80 % 1007,3 hPa 0,0 l/m 3,6 km/h (1 Bft) SW 225 16,5 C 20,1 C
25.08.2012 10:21 20,5 C 79 % 1007,3 hPa 0,0 l/m 2,9 km/h (1 Bft) NO 45 16,7 C 20,5 C
25.08.2012 10:26 20,8 C 77 % 1007,2 hPa 0,0 l/m 4,7 km/h (1 Bft) S-SW 202 16,6 C 20,8 C
25.08.2012 10:31 21,1 C 77 % 1007,3 hPa 0,0 l/m 8,3 km/h (2 Bft) S-SW 202 16,9 C 21,1 C
25.08.2012 10:36 21,4 C 75 % 1007,3 hPa 0,0 l/m 6,1 km/h (2 Bft) SW 225 16,8 C 21,4 C
25.08.2012 10:41 21,8 C 74 % 1007,3 hPa 0,0 l/m 10,1 km/h (2 Bft) SW 225 17,0 C 21,8 C
25.08.2012 10:46 22,1 C 73 % 1007,3 hPa 0,0 l/m 3,6 km/h (1 Bft) SW 225 17,0 C 22,1 C
25.08.2012 10:51 22,3 C 71 % 1007,2 hPa 0,0 l/m 6,5 km/h (2 Bft) W-SW 247 16,8 C 22,3 C
25.08.2012 10:56 22,4 C 68 % 1007,3 hPa 0,0 l/m 8,3 km/h (2 Bft) SW 225 16,2 C 22,4 C
25.08.2012 11:01 22,3 C 68 % 1007,2 hPa 0,0 l/m 5,8 km/h (2 Bft) SW 225 16,1 C 22,3 C
25.08.2012 11:06 22,2 C 68 % 1007,3 hPa 0,0 l/m 7,2 km/h (2 Bft) W 270 16,0 C 22,2 C
25.08.2012 11:11 22,0 C 67 % 1007,4 hPa 0,0 l/m 3,2 km/h (1 Bft) W-SW 247 15,6 C 22,0 C
25.08.2012 11:16 21,8 C 67 % 1007,5 hPa 0,0 l/m 5,0 km/h (1 Bft) S-SW 202 15,4 C 21,8 C
25.08.2012 11:21 21,9 C 68 % 1007,5 hPa 0,0 l/m 4,0 km/h (1 Bft) W-SW 247 15,7 C 21,9 C
25.08.2012 11:26 22,2 C 68 % 1007,6 hPa 0,0 l/m 10,4 km/h (2 Bft) W 270 16,0 C 22,2 C
25.08.2012 11:31 22,3 C 67 % 1007,5 hPa 0,0 l/m 2,9 km/h (1 Bft) SW 225 15,9 C 22,3 C
25.08.2012 11:36 22,3 C 67 % 1007,5 hPa 0,0 l/m 18,0 km/h (3 Bft) S-SW 202 15,9 C 22,3 C
25.08.2012 11:41 22,4 C 66 % 1007,4 hPa 0,0 l/m 7,9 km/h (2 Bft) W-SW 247 15,7 C 22,4 C
25.08.2012 11:46 22,6 C 65 % 1007,6 hPa 0,0 l/m 14,8 km/h (3 Bft) SW 225 15,7 C 22,6 C
25.08.2012 11:51 22,8 C 64 % 1007,6 hPa 0,0 l/m 21,6 km/h (4 Bft) S-SW 202 15,6 C 22,8 C
25.08.2012 11:56 23,0 C 63 % 1007,7 hPa 0,0 l/m 11,2 km/h (2 Bft) W-SW 247 15,6 C 23,0 C
25.08.2012 12:01 22,9 C 63 % 1007,7 hPa 0,0 l/m 15,8 km/h (3 Bft) S-SW 202 15,5 C 22,9 C
25.08.2012 12:06 23,0 C 62 % 1007,6 hPa 0,0 l/m 7,2 km/h (2 Bft) W-SW 247 15,3 C 23,0 C
25.08.2012 12:11 23,2 C 61 % 1007,6 hPa 0,0 l/m 18,4 km/h (3 Bft) W 270 15,3 C 23,2 C
25.08.2012 12:16 23,4 C 60 % 1007,5 hPa 0,0 l/m 9,4 km/h (2 Bft) W-SW 247 15,2 C 23,4 C
25.08.2012 12:21 23,5 C 58 % 1007,4 hPa 0,0 l/m 16,9 km/h (3 Bft) SW 225 14,7 C 23,5 C
25.08.2012 12:26 23,4 C 58 % 1007,4 hPa 0,0 l/m 11,9 km/h (2 Bft) S 180 14,7 C 23,4 C
25.08.2012 12:31 23,5 C 58 % 1007,4 hPa 0,0 l/m 12,2 km/h (2 Bft) S-SW 202 14,7 C 23,5 C
25.08.2012 12:36 23,8 C 57 % 1007,3 hPa 0,0 l/m 9,4 km/h (2 Bft) W-SW 247 14,8 C 23,8 C
25.08.2012 12:41 23,8 C 57 % 1007,3 hPa 0,0 l/m 24,8 km/h (4 Bft) W 270 14,8 C 23,8 C
25.08.2012 12:46 23,6 C 57 % 1007,1 hPa 0,0 l/m 18,7 km/h (3 Bft) W 270 14,6 C 23,6 C
25.08.2012 12:51 23,6 C 57 % 1007,1 hPa 0,0 l/m 8,6 km/h (2 Bft) S-SW 202 14,6 C 23,6 C
25.08.2012 12:56 23,9 C 56 % 1007,2 hPa 0,0 l/m 14,4 km/h (3 Bft) S 180 14,6 C 23,9 C
25.08.2012 13:01 24,3 C 56 % 1007,2 hPa 0,0 l/m 15,1 km/h (3 Bft) S-SW 202 14,9 C 24,3 C
25.08.2012 13:06 24,3 C 55 % 1007,2 hPa 0,0 l/m 7,6 km/h (2 Bft) SW 225 14,7 C 24,3 C
25.08.2012 13:11 24,2 C 54 % 1007,3 hPa 0,0 l/m 14,4 km/h (3 Bft) W-SW 247 14,3 C 24,2 C
25.08.2012 13:16 24,1 C 54 % 1007,3 hPa 0,0 l/m 9,7 km/h (2 Bft) S-SW 202 14,2 C 24,1 C
25.08.2012 13:21 23,9 C 55 % 1007,1 hPa 0,0 l/m 7,6 km/h (2 Bft) SO 135 14,3 C 23,9 C
25.08.2012 13:26 23,8 C 55 % 1007,1 hPa 0,0 l/m 10,8 km/h (2 Bft) W 270 14,2 C 23,8 C
25.08.2012 13:31 24,1 C 55 % 1007,1 hPa 0,0 l/m 14,8 km/h (3 Bft) W-SW 247 14,5 C 24,1 C
25.08.2012 13:36 24,2 C 54 % 1007,1 hPa 0,0 l/m 13,7 km/h (3 Bft) W-SW 247 14,3 C 24,2 C
25.08.2012 13:41 24,4 C 56 % 1007,1 hPa 0,0 l/m 5,8 km/h (2 Bft) SW 225 15,0 C 24,4 C
25.08.2012 13:46 24,8 C 56 % 1007,1 hPa 0,0 l/m 6,5 km/h (2 Bft) W-NW 292 15,4 C 24,8 C
25.08.2012 13:51 25,1 C 54 % 1007,0 hPa 0,0 l/m 17,6 km/h (3 Bft) SW 225 15,1 C 25,1 C
25.08.2012 13:56 25,2 C 53 % 1007,0 hPa 0,0 l/m 22,3 km/h (4 Bft) W 270 14,9 C 25,2 C
25.08.2012 14:01 25,1 C 53 % 1007,0 hPa 0,0 l/m 15,1 km/h (3 Bft) S-SO 157 14,8 C 25,1 C
25.08.2012 14:06 24,9 C 53 % 1007,1 hPa 0,0 l/m 12,2 km/h (2 Bft) W-SW 247 14,6 C 24,9 C
25.08.2012 14:11 24,9 C 53 % 1007,1 hPa 0,0 l/m 8,3 km/h (2 Bft) S 180 14,6 C 24,9 C
25.08.2012 14:16 24,8 C 53 % 1007,0 hPa 0,0 l/m 13,7 km/h (3 Bft) S 180 14,6 C 24,8 C
25.08.2012 14:21 25,1 C 53 % 1007,0 hPa 0,0 l/m 6,1 km/h (2 Bft) S 180 14,8 C 25,1 C
25.08.2012 14:26 25,3 C 52 % 1007,0 hPa 0,0 l/m 9,7 km/h (2 Bft) W-SW 247 14,7 C 25,3 C
25.08.2012 14:31 25,4 C 53 % 1007,0 hPa 0,0 l/m 19,4 km/h (3 Bft) S-SW 202 15,1 C 25,4 C
25.08.2012 14:36 25,6 C 52 % 1006,9 hPa 0,0 l/m 16,2 km/h (3 Bft) W 270 15,0 C 25,6 C
25.08.2012 14:41 25,4 C 52 % 1006,9 hPa 0,0 l/m 6,5 km/h (2 Bft) W-NW 292 14,8 C 25,4 C
25.08.2012 14:46 25,2 C 52 % 1006,9 hPa 0,0 l/m 10,4 km/h (2 Bft) SW 225 14,6 C 25,2 C
25.08.2012 14:51 25,2 C 53 % 1006,8 hPa 0,0 l/m 9,0 km/h (2 Bft) SW 225 14,9 C 25,2 C
25.08.2012 14:56 25,5 C 53 % 1006,8 hPa 0,0 l/m 7,2 km/h (2 Bft) SW 225 15,2 C 25,5 C
25.08.2012 15:01 25,9 C 52 % 1006,9 hPa 0,0 l/m 18,4 km/h (3 Bft) W-SW 247 15,3 C 25,9 C
25.08.2012 15:06 26,4 C 50 % 1006,6 hPa 0,0 l/m 12,2 km/h (2 Bft) W-SW 247 15,1 C 26,4 C
25.08.2012 15:11 26,7 C 50 % 1006,7 hPa 0,0 l/m 19,8 km/h (3 Bft) SW 225 15,4 C 26,7 C
25.08.2012 15:16 26,5 C 50 % 1006,7 hPa 0,0 l/m 19,1 km/h (3 Bft) W 270 15,2 C 26,5 C
25.08.2012 15:21 26,2 C 51 % 1006,6 hPa 0,0 l/m 9,7 km/h (2 Bft) W 270 15,2 C 26,2 C
25.08.2012 15:26 26,1 C 51 % 1006,4 hPa 0,0 l/m 22,0 km/h (4 Bft) W 270 15,2 C 26,1 C
25.08.2012 15:31 26,2 C 52 % 1006,4 hPa 0,0 l/m 13,0 km/h (3 Bft) SW 225 15,6 C 26,2 C
25.08.2012 15:36 26,4 C 50 % 1006,4 hPa 0,0 l/m 11,9 km/h (2 Bft) W-SW 247 15,1 C 26,4 C
25.08.2012 15:41 26,3 C 50 % 1006,5 hPa 0,0 l/m 9,4 km/h (2 Bft) S-SW 202 15,0 C 26,3 C
25.08.2012 15:46 25,9 C 51 % 1006,4 hPa 0,0 l/m 11,2 km/h (2 Bft) W-SW 247 15,0 C 25,9 C
25.08.2012 15:51 25,8 C 51 % 1006,4 hPa 0,0 l/m 16,9 km/h (3 Bft) W-SW 247 14,9 C 25,8 C
25.08.2012 15:56 25,9 C 51 % 1006,3 hPa 0,0 l/m 12,6 km/h (3 Bft) W 270 15,0 C 25,9 C
25.08.2012 16:01 26,3 C 50 % 1006,3 hPa 0,0 l/m 11,5 km/h (2 Bft) W-SW 247 15,0 C 26,3 C
25.08.2012 16:06 26,5 C 50 % 1006,2 hPa 0,0 l/m 13,3 km/h (3 Bft) S-SW 202 15,2 C 26,5 C
25.08.2012 16:11 26,8 C 49 % 1006,1 hPa 0,0 l/m 18,7 km/h (3 Bft) S-SW 202 15,2 C 26,8 C
25.08.2012 16:16 26,9 C 49 % 1006,0 hPa 0,0 l/m 20,9 km/h (4 Bft) SO 135 15,3 C 26,9 C
25.08.2012 16:21 26,8 C 49 % 1006,1 hPa 0,0 l/m 19,8 km/h (3 Bft) W-SW 247 15,2 C 26,8 C
25.08.2012 16:26 26,6 C 50 % 1005,9 hPa 0,0 l/m 9,7 km/h (2 Bft) S 180 15,3 C 26,6 C
25.08.2012 16:31 26,8 C 50 % 1005,8 hPa 0,0 l/m 12,2 km/h (2 Bft) S-SO 157 15,5 C 26,8 C
25.08.2012 16:36 26,9 C 50 % 1005,9 hPa 0,0 l/m 9,0 km/h (2 Bft) SW 225 15,6 C 26,9 C
25.08.2012 16:41 26,9 C 49 % 1005,9 hPa 0,0 l/m 8,6 km/h (2 Bft) W 270 15,3 C 26,9 C
25.08.2012 16:46 26,6 C 50 % 1006,2 hPa 0,0 l/m 10,8 km/h (2 Bft) SO 135 15,3 C 26,6 C
25.08.2012 16:51 26,3 C 50 % 1006,0 hPa 0,0 l/m 9,4 km/h (2 Bft) SW 225 15,0 C 26,3 C
25.08.2012 16:56 25,9 C 51 % 1006,0 hPa 0,0 l/m 10,8 km/h (2 Bft) SW 225 15,0 C 25,9 C
25.08.2012 17:01 25,4 C 53 % 1006,1 hPa 0,0 l/m 10,4 km/h (2 Bft) S-SW 202 15,1 C 25,4 C
25.08.2012 17:06 25,2 C 54 % 1006,0 hPa 0,0 l/m 8,3 km/h (2 Bft) S-SW 202 15,2 C 25,2 C
25.08.2012 17:11 25,2 C 54 % 1006,0 hPa 0,0 l/m 9,0 km/h (2 Bft) W-SW 247 15,2 C 25,2 C
25.08.2012 17:16 25,2 C 54 % 1006,1 hPa 0,0 l/m 5,8 km/h (2 Bft) W-NW 292 15,2 C 25,2 C
25.08.2012 17:21 25,0 C 54 % 1006,1 hPa 0,0 l/m 6,1 km/h (2 Bft) W-NW 292 15,0 C 25,0 C
25.08.2012 17:26 24,7 C 53 % 1006,0 hPa 0,0 l/m 10,8 km/h (2 Bft) W 270 14,5 C 24,7 C
25.08.2012 17:31 24,6 C 54 % 1006,0 hPa 0,0 l/m 3,6 km/h (1 Bft) W 270 14,7 C 24,6 C
25.08.2012 17:36 24,8 C 54 % 1005,9 hPa 0,0 l/m 11,5 km/h (2 Bft) W 270 14,8 C 24,8 C
25.08.2012 17:41 24,8 C 54 % 1005,9 hPa 0,0 l/m 5,8 km/h (2 Bft) SW 225 14,8 C 24,8 C
25.08.2012 17:46 24,8 C 52 % 1005,9 hPa 0,0 l/m 19,8 km/h (3 Bft) S-SW 202 14,3 C 24,8 C
25.08.2012 17:51 24,5 C 50 % 1005,9 hPa 0,0 l/m 16,6 km/h (3 Bft) W-SW 247 13,4 C 24,5 C
25.08.2012 17:56 24,4 C 50 % 1006,2 hPa 0,0 l/m 15,8 km/h (3 Bft) W-SW 247 13,3 C 24,4 C
25.08.2012 18:01 24,1 C 51 % 1006,2 hPa 0,0 l/m 17,6 km/h (3 Bft) W 270 13,3 C 24,1 C
25.08.2012 18:06 23,8 C 51 % 1006,2 hPa 0,0 l/m 17,3 km/h (3 Bft) SW 225 13,0 C 23,8 C
25.08.2012 18:11 23,6 C 53 % 1006,1 hPa 0,0 l/m 23,0 km/h (4 Bft) W 270 13,4 C 23,6 C
25.08.2012 18:16 23,4 C 53 % 1006,0 hPa 0,0 l/m 8,3 km/h (2 Bft) SW 225 13,3 C 23,4 C
25.08.2012 18:21 23,2 C 54 % 1006,0 hPa 0,0 l/m 12,6 km/h (3 Bft) W-SW 247 13,4 C 23,2 C
25.08.2012 18:26 23,1 C 54 % 1005,9 hPa 0,0 l/m 19,4 km/h (3 Bft) SW 225 13,3 C 23,1 C
25.08.2012 18:31 22,9 C 55 % 1006,0 hPa 0,0 l/m 12,6 km/h (3 Bft) SW 225 13,4 C 22,9 C
25.08.2012 18:36 22,9 C 55 % 1006,1 hPa 0,0 l/m 19,4 km/h (3 Bft) W-SW 247 13,4 C 22,9 C
25.08.2012 18:41 23,3 C 55 % 1006,1 hPa 0,0 l/m 14,8 km/h (3 Bft) W-SW 247 13,7 C 23,3 C
25.08.2012 18:46 23,6 C 55 % 1006,2 hPa 0,0 l/m 8,3 km/h (2 Bft) W-NW 292 14,0 C 23,6 C
25.08.2012 18:51 23,8 C 55 % 1006,2 hPa 0,0 l/m 5,8 km/h (2 Bft) W 270 14,2 C 23,8 C
25.08.2012 18:56 24,0 C 54 % 1006,2 hPa 0,0 l/m 15,8 km/h (3 Bft) W-SW 247 14,1 C 24,0 C
25.08.2012 19:01 23,9 C 54 % 1006,2 hPa 0,0 l/m 13,0 km/h (3 Bft) W-SW 247 14,0 C 23,9 C
25.08.2012 19:06 23,8 C 55 % 1006,3 hPa 0,0 l/m 9,0 km/h (2 Bft) W-SW 247 14,2 C 23,8 C
25.08.2012 19:11 23,6 C 56 % 1006,2 hPa 0,0 l/m 3,6 km/h (1 Bft) W-SW 247 14,3 C 23,6 C
25.08.2012 19:16 23,4 C 56 % 1006,3 hPa 0,0 l/m 4,0 km/h (1 Bft) W-SW 247 14,1 C 23,4 C
25.08.2012 19:21 23,3 C 57 % 1006,3 hPa 0,0 l/m 8,3 km/h (2 Bft) W 270 14,3 C 23,3 C
25.08.2012 19:26 23,2 C 58 % 1006,3 hPa 0,0 l/m 7,6 km/h (2 Bft) W-SW 247 14,5 C 23,2 C
25.08.2012 19:31 23,0 C 58 % 1006,2 hPa 0,0 l/m 8,6 km/h (2 Bft) W-SW 247 14,3 C 23,0 C
25.08.2012 19:36 22,8 C 59 % 1006,3 hPa 0,0 l/m 7,2 km/h (2 Bft) W-SW 247 14,4 C 22,8 C
25.08.2012 19:41 22,5 C 60 % 1006,3 hPa 0,0 l/m 7,6 km/h (2 Bft) W 270 14,3 C 22,5 C
25.08.2012 19:46 22,4 C 60 % 1006,4 hPa 0,0 l/m 3,6 km/h (1 Bft) W 270 14,2 C 22,4 C
25.08.2012 19:51 22,2 C 61 % 1006,6 hPa 0,0 l/m 4,7 km/h (1 Bft) SW 225 14,3 C 22,2 C
25.08.2012 19:56 21,9 C 61 % 1006,8 hPa 0,0 l/m 5,0 km/h (1 Bft) W-SW 247 14,0 C 21,9 C
25.08.2012 20:01 21,8 C 62 % 1006,8 hPa 0,0 l/m 5,0 km/h (1 Bft) W-SW 247 14,2 C 21,8 C
25.08.2012 20:06 21,6 C 63 % 1006,9 hPa 0,0 l/m 4,0 km/h (1 Bft) W-SW 247 14,2 C 21,6 C
25.08.2012 20:11 21,5 C 64 % 1006,8 hPa 0,0 l/m 4,7 km/h (1 Bft) W-SW 247 14,4 C 21,5 C
25.08.2012 20:16 21,4 C 64 % 1006,7 hPa 0,0 l/m 1,4 km/h (1 Bft) SW 225 14,3 C 21,4 C
25.08.2012 20:21 21,3 C 64 % 1006,6 hPa 0,0 l/m 1,8 km/h (1 Bft) W-SW 247 14,2 C 21,3 C
25.08.2012 20:26 21,2 C 65 % 1006,7 hPa 0,0 l/m 0,0 km/h (0 Bft) W-SW 247 14,4 C 21,2 C
25.08.2012 20:31 21,1 C 65 % 1006,8 hPa 0,0 l/m 0,0 km/h (0 Bft) W-SW 247 14,3 C 21,1 C
25.08.2012 20:36 20,9 C 66 % 1007,0 hPa 0,0 l/m 1,4 km/h (1 Bft) W-SW 247 14,3 C 20,9 C
25.08.2012 20:41 20,8 C 66 % 1007,0 hPa 0,0 l/m 0,0 km/h (0 Bft) W-SW 247 14,2 C 20,8 C
25.08.2012 20:46 20,7 C 67 % 1007,0 hPa 0,0 l/m 3,6 km/h (1 Bft) SW 225 14,3 C 20,7 C
25.08.2012 20:51 20,6 C 67 % 1007,0 hPa 0,0 l/m 1,4 km/h (1 Bft) W-SW 247 14,3 C 20,6 C
25.08.2012 20:56 20,5 C 68 % 1007,0 hPa 0,0 l/m 4,7 km/h (1 Bft) W-NW 292 14,4 C 20,5 C
25.08.2012 21:01 20,4 C 69 % 1007,1 hPa 0,0 l/m 0,0 km/h (0 Bft) N-NW 337 14,5 C 20,4 C
25.08.2012 21:06 20,3 C 68 % 1007,0 hPa 0,0 l/m 4,0 km/h (1 Bft) W-NW 292 14,2 C 20,3 C
25.08.2012 21:11 20,2 C 68 % 1006,9 hPa 0,0 l/m 2,9 km/h (1 Bft) N 360 14,1 C 20,2 C
25.08.2012 21:16 19,9 C 68 % 1006,9 hPa 0,0 l/m 1,4 km/h (1 Bft) N 360 13,8 C 19,9 C
25.08.2012 21:21 19,8 C 69 % 1007,0 hPa 0,0 l/m 0,0 km/h (0 Bft) N-NW 337 13,9 C 19,8 C
25.08.2012 21:26 19,6 C 69 % 1007,0 hPa 0,0 l/m 0,0 km/h (0 Bft) N-NW 337 13,8 C 19,6 C
25.08.2012 21:31 19,4 C 69 % 1007,1 hPa 0,0 l/m 0,0 km/h (0 Bft) N-NW 337 13,6 C 19,4 C
25.08.2012 21:36 19,2 C 69 % 1007,2 hPa 0,0 l/m 0,0 km/h (0 Bft) N-NW 337 13,4 C 19,2 C
25.08.2012 21:41 19,1 C 70 % 1007,1 hPa 0,0 l/m 0,0 km/h (0 Bft) N-NW 337 13,5 C 19,1 C
25.08.2012 21:46 18,9 C 71 % 1007,1 hPa 0,0 l/m 0,0 km/h (0 Bft) N-NW 337 13,5 C 18,9 C
25.08.2012 21:51 18,8 C 71 % 1007,1 hPa 0,0 l/m 0,0 km/h (0 Bft) N-NW 337 13,4 C 18,8 C
25.08.2012 21:56 18,7 C 71 % 1007,0 hPa 0,0 l/m 0,0 km/h (0 Bft) N-NW 337 13,3 C 18,7 C
25.08.2012 22:01 18,6 C 71 % 1006,9 hPa 0,0 l/m 0,0 km/h (0 Bft) N-NW 337 13,2 C 18,6 C
25.08.2012 22:06 18,4 C 71 % 1006,9 hPa 0,0 l/m 0,0 km/h (0 Bft) N-NW 337 13,0 C 18,4 C
25.08.2012 22:11 18,3 C 71 % 1006,9 hPa 0,0 l/m 0,0 km/h (0 Bft) N-NW 337 12,9 C 18,3 C
25.08.2012 22:16 18,2 C 72 % 1006,9 hPa 0,0 l/m 0,0 km/h (0 Bft) N-NW 337 13,1 C 18,2 C
25.08.2012 22:21 18,1 C 72 % 1006,9 hPa 0,0 l/m 0,0 km/h (0 Bft) N-NW 337 13,0 C 18,1 C
25.08.2012 22:26 18,0 C 72 % 1006,8 hPa 0,0 l/m 0,0 km/h (0 Bft) N-NW 337 12,9 C 18,0 C
25.08.2012 22:31 17,9 C 73 % 1006,9 hPa 0,0 l/m 0,0 km/h (0 Bft) N-NW 337 13,0 C 17,9 C
25.08.2012 22:36 17,9 C 73 % 1007,0 hPa 0,0 l/m 0,0 km/h (0 Bft) SO 135 13,0 C 17,9 C
25.08.2012 22:41 17,9 C 74 % 1007,0 hPa 0,0 l/m 0,0 km/h (0 Bft) S-SO 157 13,2 C 17,9 C
25.08.2012 22:46 17,8 C 74 % 1006,9 hPa 0,0 l/m 0,0 km/h (0 Bft) S-SO 157 13,1 C 17,8 C
25.08.2012 22:51 17,7 C 73 % 1007,0 hPa 0,0 l/m 0,0 km/h (0 Bft) S-SO 157 12,8 C 17,7 C
25.08.2012 22:56 17,6 C 73 % 1007,0 hPa 0,0 l/m 0,0 km/h (0 Bft) S-SO 157 12,7 C 17,6 C
25.08.2012 23:01 17,4 C 74 % 1006,9 hPa 0,0 l/m 0,0 km/h (0 Bft) S-SO 157 12,7 C 17,4 C
25.08.2012 23:06 17,3 C 75 % 1007,2 hPa 0,0 l/m 0,0 km/h (0 Bft) S-SO 157 12,8 C 17,3 C
25.08.2012 23:11 17,2 C 75 % 1007,2 hPa 0,0 l/m 0,0 km/h (0 Bft) S-SW 202 12,7 C 17,2 C
25.08.2012 23:16 17,1 C 76 % 1007,3 hPa 0,0 l/m 0,0 km/h (0 Bft) S-SW 202 12,8 C 17,1 C
25.08.2012 23:21 17,1 C 76 % 1007,4 hPa 0,0 l/m 0,0 km/h (0 Bft) S-SW 202 12,8 C 17,1 C
25.08.2012 23:26 16,9 C 76 % 1007,4 hPa 0,0 l/m 0,0 km/h (0 Bft) S-SW 202 12,6 C 16,9 C
25.08.2012 23:31 16,9 C 77 % 1007,3 hPa 0,0 l/m 0,0 km/h (0 Bft) S-SW 202 12,8 C 16,9 C
25.08.2012 23:36 16,9 C 78 % 1007,2 hPa 0,0 l/m 0,0 km/h (0 Bft) S-SW 202 13,0 C 16,9 C
25.08.2012 23:41 16,9 C 79 % 1007,1 hPa 0,0 l/m 0,0 km/h (0 Bft) SO 135 13,2 C 16,9 C
25.08.2012 23:46 16,9 C 79 % 1007,0 hPa 0,0 l/m 0,0 km/h (0 Bft) S-SO 157 13,2 C 16,9 C
25.08.2012 23:51 16,9 C 80 % 1007,2 hPa 0,0 l/m 0,0 km/h (0 Bft) SO 135 13,4 C 16,9 C
25.08.2012 23:56 17,0 C 80 % 1007,1 hPa 0,0 l/m 4,0 km/h (1 Bft) SO 135 13,5 C 17,0 C
_ Min-Zeit 02:21 16:11 16:31 - 00:01 - - 00:31 02:21
Minimum _ 14,1 C 49 % 1005,8 hPa - 0,0 km/h (0 Bft) - - 12,2 C 14,1 C
_ Max-Zeit 16:16 07:06 00:11 05:21 12:41 - - 10:46 16:16
Maximum _ 26,9 C 93 % 1008,0 hPa 0,5 l/m 24,8 km/h
W (4 Bft)
- - 17,0 C 26,9 C
Durchschnitt _ 19,5 C 73 % 1007,0 hPa #0,5 l/m 5,4 km/h (1 Bft) W-SW - 14,2 C 19,5 C
(c) by David Heller